When you browse on this site, cookies collect data to enhance your experience and personalize the content and advertising you see.
Visit our Privacy Policy to learn more. By continuing to use the site, you agree to this use of cookies and data.
  • în România
  • Lista ţărilor
  • Pe 7 zile
  • Temperatura apei
  • Meteo pe hartă
  • Widget-uri
  • user-avatar
    Intrare

    Meteo pe oră la Oksford

    Astăzi, 9 Decembrie, Luni

    Timp Temperatura Precipitaţii Vânt Presiune Umiditate
    00:00 +4°C° 0.7 mm 8 m/s 737 mmHg 88%
    01:00 +4°C° 0.2 mm 8 m/s 738 mmHg 87%
    02:00 +3°C° 0.2 mm 9 m/s 738 mmHg 87%
    03:00 +3°C° 0.2 mm 9 m/s 738 mmHg 87%
    04:00 +5°C° 0.2 mm 9 m/s 740 mmHg 83%
    05:00 +5°C° 0.2 mm 9 m/s 741 mmHg 80%
    06:00 +5°C° 0.2 mm 9 m/s 743 mmHg 77%
    07:00 +5°C° 0 mm 9 m/s 745 mmHg 75%
    08:00 +3°C° 0 mm 9 m/s 747 mmHg 74%
    09:00 +3°C° 0 mm 9 m/s 749 mmHg 73%
    10:00 +3°C° 0 mm 9 m/s 751 mmHg 71%
    11:00 +4°C° 0 mm 8 m/s 753 mmHg 69%
    12:00 +5°C° 0 mm 8 m/s 755 mmHg 68%
    13:00 +4°C° 0 mm 7 m/s 756 mmHg 69%
    14:00 +5°C° 0 mm 5 m/s 757 mmHg 70%
    15:00 +4°C° 0 mm 4 m/s 758 mmHg 71%
    16:00 +4°C° 0 mm 4 m/s 759 mmHg 74%
    17:00 +3°C° 0 mm 3 m/s 760 mmHg 77%
    18:00 +2°C° 0 mm 3 m/s 761 mmHg 80%
    19:00 +2°C° 0 mm 3 m/s 762 mmHg 81%
    20:00 +2°C° 0 mm 3 m/s 762 mmHg 83%
    21:00 +3°C° 0 mm 2 m/s 762 mmHg 85%
    22:00 +3°C° 0 mm 2 m/s 762 mmHg 86%
    23:00 +3°C° 0 mm 2 m/s 762 mmHg 87%

    Mâine, 10 Decembrie, Marţi

    Timp Temperatura Precipitaţii Vânt Presiune Umiditate
    00:00 +2°C° 0 mm 2 m/s 762 mmHg 88%
    01:00 +1°C° 0 mm 3 m/s 762 mmHg 87%
    02:00 +1°C° 0 mm 4 m/s 761 mmHg 86%
    03:00 +1°C° 0 mm 4 m/s 761 mmHg 86%
    04:00 +1°C° 0 mm 5 m/s 760 mmHg 86%
    05:00 +2°C° 0 mm 5 m/s 759 mmHg 86%
    06:00 +3°C° 0 mm 6 m/s 758 mmHg 86%
    07:00 +4°C° 0.1 mm 7 m/s 758 mmHg 86%
    08:00 +4°C° 0.1 mm 8 m/s 757 mmHg 87%
    09:00 +5°C° 0.1 mm 9 m/s 756 mmHg 87%
    10:00 +6°C° 0.6 mm 10 m/s 755 mmHg 88%
    11:00 +6°C° 0.6 mm 10 m/s 754 mmHg 89%
    12:00 +7°C° 0.6 mm 11 m/s 753 mmHg 90%
    13:00 +7°C° 0.6 mm 11 m/s 751 mmHg 90%
    14:00 +8°C° 0.6 mm 11 m/s 749 mmHg 90%
    15:00 +9°C° 0.6 mm 11 m/s 748 mmHg 90%
    16:00 +9°C° 0.6 mm 11 m/s 748 mmHg 90%
    17:00 +9°C° 0.6 mm 11 m/s 747 mmHg 90%
    18:00 +11°C° 0.6 mm 11 m/s 747 mmHg 91%
    19:00 +8°C° 1.3 mm 9 m/s 748 mmHg 89%
    20:00 +6°C° 1.3 mm 7 m/s 749 mmHg 87%
    21:00 +4°C° 1.3 mm 6 m/s 749 mmHg 85%
    22:00 +5°C° 0 mm 5 m/s 750 mmHg 84%
    23:00 +5°C° 0 mm 5 m/s 750 mmHg 83%

    Poimâine, 11 Decembrie, Miercuri

    Timp Temperatura Precipitaţii Vânt Presiune Umiditate
    00:00 +4°C° 0 mm 4 m/s 751 mmHg 82%
    01:00 +4°C° 0 mm 4 m/s 751 mmHg 83%
    02:00 +3°C° 0 mm 4 m/s 751 mmHg 84%
    03:00 +3°C° 0 mm 4 m/s 751 mmHg 85%
    04:00 +2°C° 0 mm 3 m/s 750 mmHg 87%
    05:00 +2°C° 0 mm 3 m/s 750 mmHg 88%
    06:00 +2°C° 0 mm 3 m/s 750 mmHg 89%
    07:00 +1°C° 0 mm 4 m/s 749 mmHg 89%
    08:00 +1°C° 0 mm 4 m/s 749 mmHg 88%
    09:00 +2°C° 0 mm 5 m/s 748 mmHg 87%
    10:00 +3°C° 0 mm 5 m/s 747 mmHg 84%
    11:00 +3°C° 0 mm 6 m/s 747 mmHg 81%
    12:00 +4°C° 0 mm 6 m/s 746 mmHg 78%
    13:00 +5°C° 0.4 mm 5 m/s 745 mmHg 79%
    14:00 +4°C° 0.4 mm 4 m/s 744 mmHg 81%
    15:00 +3°C° 0.4 mm 4 m/s 743 mmHg 83%
    16:00 +3°C° 0 mm 4 m/s 744 mmHg 84%
    17:00 +1°C° 0 mm 4 m/s 744 mmHg 85%
    18:00 +1°C° 0 mm 4 m/s 744 mmHg 86%
    19:00 +1°C° 0 mm 5 m/s 745 mmHg 85%
    20:00 0°C° 0 mm 5 m/s 746 mmHg 84%
    21:00 0°C° 0 mm 5 m/s 747 mmHg 83%
    22:00 0°C° 0 mm 5 m/s 747 mmHg 83%
    23:00 0°C° 0 mm 5 m/s 747 mmHg 83%

    12 Decembrie, Joi

    Timp Temperatura Precipitaţii Vânt Presiune Umiditate
    00:00 0°C° 0 mm 5 m/s 748 mmHg 83%
    01:00 0°C° 0 mm 5 m/s 748 mmHg 83%
    02:00 0°C° 0 mm 5 m/s 748 mmHg 83%
    03:00 0°C° 0 mm 5 m/s 748 mmHg 84%
    04:00 0°C° 0 mm 5 m/s 747 mmHg 84%
    05:00 0°C° 0 mm 5 m/s 747 mmHg 84%
    06:00 0°C° 0 mm 5 m/s 746 mmHg 85%
    07:00 +1°C° 0.1 mm 6 m/s 745 mmHg 86%
    08:00 +2°C° 0.1 mm 7 m/s 744 mmHg 87%
    09:00 +3°C° 0.1 mm 7 m/s 743 mmHg 89%
    10:00 +4°C° 0.4 mm 8 m/s 741 mmHg 89%
    11:00 +5°C° 0.4 mm 9 m/s 739 mmHg 90%
    12:00 +6°C° 0.4 mm 10 m/s 737 mmHg 90%
    13:00 +6°C° 1.7 mm 9 m/s 735 mmHg 91%
    14:00 +7°C° 1.7 mm 9 m/s 733 mmHg 92%
    15:00 +7°C° 1.7 mm 9 m/s 731 mmHg 93%
    16:00 +7°C° 0.2 mm 10 m/s 731 mmHg 87%
    17:00 +7°C° 0.2 mm 10 m/s 730 mmHg 81%
    18:00 +6°C° 0.2 mm 10 m/s 730 mmHg 75%
    19:00 +5°C° 0 mm 10 m/s 730 mmHg 77%
    20:00 +3°C° 0 mm 9 m/s 731 mmHg 79%
    21:00 +1°C° 0 mm 9 m/s 731 mmHg 80%
    22:00 +1°C° 0 mm 9 m/s 732 mmHg 80%
    23:00 +1°C° 0 mm 9 m/s 732 mmHg 80%

    13 Decembrie, Vineri

    Timp Temperatura Precipitaţii Vânt Presiune Umiditate
    00:00 0°C° 0 mm 9 m/s 732 mmHg 79%
    01:00 +1°C° 0 mm 9 m/s 732 mmHg 79%
    02:00 +1°C° 0 mm 9 m/s 732 mmHg 78%
    03:00 +1°C° 0 mm 9 m/s 732 mmHg 77%
    04:00 +1°C° 0 mm 10 m/s 733 mmHg 76%
    05:00 0°C° 0 mm 10 m/s 733 mmHg 75%
    06:00 0°C° 0 mm 10 m/s 733 mmHg 74%
    07:00 -1°C° 0 mm 11 m/s 734 mmHg 73%
    08:00 +1°C° 0 mm 11 m/s 735 mmHg 73%
    09:00 +1°C° 0 mm 11 m/s 736 mmHg 73%
    10:00 +1°C° 0 mm 11 m/s 736 mmHg 72%
    11:00 +2°C° 0 mm 11 m/s 737 mmHg 70%
    12:00 +2°C° 0 mm 11 m/s 737 mmHg 69%
    13:00 +2°C° 0 mm 10 m/s 738 mmHg 71%
    14:00 +2°C° 0 mm 9 m/s 738 mmHg 72%
    15:00 +2°C° 0 mm 9 m/s 738 mmHg 74%
    16:00 +1°C° 0 mm 8 m/s 739 mmHg 75%
    17:00 +2°C° 0 mm 7 m/s 739 mmHg 76%
    18:00 +1°C° 0 mm 6 m/s 739 mmHg 77%
    19:00 +2°C° 0 mm 6 m/s 739 mmHg 78%
    20:00 +2°C° 0 mm 5 m/s 739 mmHg 79%
    21:00 +2°C° 0 mm 5 m/s 739 mmHg 81%
    22:00 +2°C° 0.1 mm 5 m/s 739 mmHg 85%
    23:00 +3°C° 0.1 mm 4 m/s 738 mmHg 89%

    14 Decembrie, Sâmbătă

    Timp Temperatura Precipitaţii Vânt Presiune Umiditate
    00:00 +4°C° 0.1 mm 4 m/s 738 mmHg 93%
    01:00 +3°C° 0.1 mm 5 m/s 738 mmHg 88%
    02:00 +4°C° 0.1 mm 7 m/s 738 mmHg 82%
    03:00 +5°C° 0.1 mm 8 m/s 738 mmHg 77%
    04:00 +5°C° 0 mm 7 m/s 739 mmHg 78%
    05:00 +4°C° 0 mm 6 m/s 739 mmHg 79%
    06:00 +3°C° 0 mm 5 m/s 740 mmHg 80%
    07:00 +3°C° 0 mm 5 m/s 740 mmHg 82%
    08:00 +4°C° 0 mm 4 m/s 740 mmHg 84%
    09:00 +4°C° 0 mm 3 m/s 741 mmHg 86%
    10:00 +5°C° 0 mm 4 m/s 740 mmHg 88%
    11:00 +5°C° 0 mm 4 m/s 739 mmHg 90%
    12:00 +6°C° 0 mm 5 m/s 739 mmHg 91%
    13:00 +6°C° 0.2 mm 7 m/s 739 mmHg 88%
    14:00 +9°C° 0.2 mm 8 m/s 738 mmHg 84%
    15:00 +9°C° 0.2 mm 10 m/s 738 mmHg 81%
    16:00 +8°C° 0 mm 10 m/s 738 mmHg 79%
    17:00 +7°C° 0 mm 9 m/s 739 mmHg 78%
    18:00 +6°C° 0 mm 9 m/s 740 mmHg 76%
    19:00 +5°C° 0 mm 8 m/s 741 mmHg 77%
    20:00 +5°C° 0 mm 7 m/s 742 mmHg 78%
    21:00 +4°C° 0 mm 7 m/s 743 mmHg 78%
    22:00 +4°C° 0 mm 6 m/s 743 mmHg 79%
    23:00 +3°C° 0 mm 6 m/s 744 mmHg 79%
    Arată mai mult